[[{"header":{"parameterUnit":"m.s-1","parameterCategory":1,"la1":30.2991,"la2":30.254,"lo1":-89.0895,"lo2":-89.0444,"dy":0.0017,"dx":0.0017,"nx":28,"ny":28,"refTime":"2025-08-08T09:00:00:Z","depth":0,"parameterNumber":2,"parameterNumberName":"U-component_of_WINDS"},"data":[0,0,0,0,0,0,0,0,0,0,0,0,0,0,0,0,0,0,0,0,0,0,0,0,0,0,0,0,0,0,0,0,0,0,0,0,0,0,0,0,0,0,0,0,0,0,0,0,0,0,0,0,0,0,0,0,0,0,-4.3051,-4.3051,0,-4.3067,-4.3067,-4.3067,-4.2943,-4.2939,-4.2936,-4.2932,-4.2947,-4.2951,-4.2955,0,0,0,0,0,0,0,0,0,0,0,0,0,-4.291,-4.2913,-4.3051,-4.3051,-4.3051,-4.3067,-4.3067,-4.3068,-4.2943,-4.2939,-4.2935,-4.2931,-4.2946,-4.2951,-4.2955,0,0,0,0,0,0,0,0,0,0,0,0,0,-4.2953,-4.2914,-4.3051,-4.2991,-4.2986,-4.3067,-4.3067,-4.3068,-4.2944,-4.2939,-4.2934,-4.2929,-4.2945,-4.295,-4.2956,-4.3094,0,0,-4.2972,-4.2975,0,0,0,0,0,0,0,0,-4.2951,-4.2958,-4.3,-4.2996,-4.299,-4.2998,-4.3023,-4.3076,-4.2946,-4.296,-4.2932,-4.2926,-4.2968,-4.2971,-4.2986,-4.3095,-4.3095,-4.2973,-4.2976,-4.2978,-4.298,0,0,0,0,0,0,0,-4.2948,-4.2957,-4.3057,-4.3001,-4.2995,-4.2963,-4.2963,-4.3032,-4.2993,-4.2958,-4.2949,-4.2953,-4.2964,-4.2981,-4.2985,-4.3095,-4.2973,-4.2977,-4.2981,-4.2983,-4.3316,-4.3321,0,0,0,0,0,0,-4.2953,-4.2955,-4.3057,-4.3058,-4.2957,-4.297,-4.297,-4.3,-4.2992,-4.2986,-4.2958,-4.2947,-4.2974,-4.2979,-4.2985,-4.3145,-4.2978,-4.2984,-4.2987,-4.331,-4.3317,-4.3323,0,0,0,0,0,0,-4.2951,-4.2964,-4.3056,-4.3004,-4.3013,-4.2978,-4.3013,-4.3003,-4.302,-4.2992,-4.2984,-4.2982,-4.297,-4.2978,-4.3067,-4.3144,-4.2986,-4.2991,-4.3304,-4.3313,-4.332,-4.3466,0,0,0,0,0,0,-4.2947,-4.2963,-4.3016,-4.3006,-4.3017,-4.3139,-4.3017,-4.3008,-4.303,-4.3016,-4.3012,-4.3006,-4.2967,-4.306,-4.3073,-4.3148,-4.2995,-4.3297,-4.3308,-4.3318,-4.3454,-4.3478,-4.3499,0,0,0,0,0,-4.2943,-4.3057,-4.302,-4.3033,-4.3082,-4.3144,-4.3149,-4.3102,-4.3036,-4.3088,-4.307,-4.3006,-4.3134,-4.307,-4.3084,-4.3162,-4.3292,-4.3305,-4.3317,-4.3444,-4.3474,-4.3499,0,0,0,0,0,0,-4.3076,-4.3055,-4.3013,-4.3128,-4.3139,-4.3123,-4.3187,-4.3135,-4.3164,-4.3151,-4.309,-4.309,-4.3189,-4.3185,-4.3114,-4.3294,-4.3201,-4.3217,-4.3293,-4.3321,-4.3343,-4.3341,-4.3,0,0,0,0,0,-4.312,-4.3172,-4.315,-4.3253,-4.3261,-4.3223,-4.3248,-4.3211,-4.3219,-4.3223,-4.3211,-4.3222,-4.3263,-4.3292,-4.333,-4.3454,-4.345,-4.3514,-4.3537,-4.3555,-4.3569,-4.3632,-4.3659,-4.3364,-4.3364,-4.3364,0,0,-4.3209,-4.3203,-4.324,-4.328,-4.3284,-4.3338,-4.3228,-4.3291,-4.333,-4.3232,-4.3316,-4.3308,-4.3315,-4.3422,-4.3469,-4.3421,-4.365,-4.3571,-4.3586,-4.3589,-4.3648,-4.3676,-4.37,-4.3373,-4.3371,-4.337,0,0,-4.3398,-4.34,-4.3485,-4.3492,-4.3499,-4.3473,-4.3494,-4.3486,-4.3477,-4.356,-4.3487,-4.3533,-4.3607,-4.3615,-4.3628,-4.382,-4.3762,-4.3834,-4.395,-4.4013,-4.4036,-4.4056,-4.4122,-4.4147,-4.3849,-4.3849,-4.3849,0,-4.3507,-4.3587,-4.3535,-4.3603,-4.3621,-4.3536,-4.3621,-4.3629,-4.3649,-4.3663,-4.361,-4.37,-4.37,-4.3806,-4.3853,-4.3868,-4.3888,-4.3833,-4.4037,-4.4057,-4.4075,-4.4137,-4.4163,-4.3857,-4.3856,-4.3856,-4.3855,0,-4.372,-4.3777,-4.3844,-4.3865,-4.3891,-4.3968,-4.3926,-4.3959,-4.392,-4.3899,-4.3984,-4.398,-4.4014,-4.4037,-4.3999,-4.4138,-4.4108,-4.4048,-4.3952,-4.4112,-4.417,-4.4194,-4.387,-4.3867,-4.3864,-4.3862,0,0,-4.3993,-4.3984,-4.401,-4.4017,-4.4019,-4.4061,-4.4133,-4.4166,-4.4195,-4.4211,-4.4268,-4.4333,-4.4276,-4.4292,-4.4254,-4.4309,-4.4459,-4.4241,-4.424,-4.4279,-4.4609,-4.4653,-4.4682,-4.4421,-4.4425,-4.4429,-4.4607,0,-4.4176,-4.4298,-4.4253,-4.4377,-4.4427,-4.4347,-4.4409,-4.4416,-4.4399,-4.4439,-4.442,-4.4466,-4.4388,-4.4397,-4.4448,-4.443,-4.4523,-4.4416,-4.4472,-4.4474,-4.447,-4.4712,-4.4759,-4.4928,-4.463,-4.4634,-4.4637,0,-4.4406,-4.4431,-4.456,-4.4552,-4.4571,-4.4628,-4.4654,-4.4693,-4.4699,-4.4683,-4.4701,-4.4651,-4.4719,-4.4626,-4.4718,-4.4646,-4.4666,-4.4661,-4.4666,-4.4667,-4.4564,-4.4718,-4.4981,-4.5006,-4.4672,-4.4669,-4.4667,0,-4.4589,-4.4656,-4.4741,-4.475,-4.4743,-4.4784,-4.4783,-4.4784,-4.4807,-4.483,-4.4843,-4.4875,-4.4891,-4.4916,-4.4875,-4.4812,-4.4973,-4.4876,-4.4959,-4.4961,-4.4995,-4.4993,-4.5263,-4.5013,-4.5012,-4.5012,-4.5011,0,-4.4797,-4.4878,-4.4823,-4.4875,-4.4964,-4.4911,-4.5,-4.499,-4.4992,-4.504,-4.4973,-4.5019,-4.4964,-4.5005,-4.4974,-4.5053,-4.5062,-4.505,-4.504,-4.5054,-4.5056,-4.5065,-4.5051,-4.5018,-4.5017,-4.5016,-4.5015,0,-4.5016,-4.4982,-4.5069,-4.5055,-4.5054,-4.512,-4.5107,-4.5154,-4.5133,-4.5194,-4.5206,-4.5172,-4.5216,-4.5179,-4.5222,-4.5201,-4.5307,-4.5281,-4.5305,-4.5297,-4.5381,-4.5373,-4.5664,-4.5699,-4.5429,-4.5431,-4.5434,0,-4.5149,-4.521,-4.5202,-4.523,-4.5233,-4.5278,-4.5301,-4.5252,-4.5277,-4.5289,-4.5334,-4.5373,-4.5402,-4.5477,-4.5455,-4.5488,-4.5461,-4.5561,-4.5466,-4.5478,-4.546,-4.5456,-4.5461,-4.558,-4.5583,-4.5586,-4.5588,0,-4.5389,-4.5369,-4.5404,-4.5434,-4.5462,-4.5483,-4.5498,-4.5525,-4.5474,-4.5507,-4.5551,-4.5574,-4.5617,-4.5656,-4.5682,-4.568,-4.5626,-4.5619,-4.5639,-4.5653,-4.5663,-4.5657,-4.5355,-4.5612,-4.5609,-4.5608,-4.5606,-4.5605,-4.5568,-4.5617,-4.5619,-4.566,-4.5666,-4.5682,-4.5725,-4.5709,-4.5745,-4.5777,-4.5746,-4.58,-4.5803,-4.5832,-4.5836,-4.5877,-4.5835,-4.5866,-4.5873,-4.5881,-4.5892,-4.5659,-4.5882,-4.5881,-4.588,-4.588,-4.5879,0,-4.5802,-4.5799,-4.5837,-4.5861,-4.5893,-4.584,-4.5854,-4.5883,-4.5932,-4.594,-4.5969,-4.602,-4.6057,-4.6039,-4.6071,-4.6107,-4.6083,-4.6117,-4.6113,-4.6113,-4.5928,-4.5906,-4.6136,-4.6136,-4.6136,-4.6136,-4.6136,-4.6136,-4.5927,-4.6007,-4.5988,-4.607,-4.6066,-4.6118,-4.6131,-4.6145,-4.615,-4.621,-4.6241,-4.6229,-4.6226,-4.6257,-4.6289,-4.6282,-4.6296,-4.6339,-4.6324,-4.6151,-4.6126,-4.6102,-4.6081,-4.6343,-4.6344,-4.6505,-4.6506,-4.6507]},{"header":{"parameterUnit":"m.s-1","parameterCategory":1,"la1":30.2991,"la2":30.254,"lo1":-89.0895,"lo2":-89.0444,"dy":0.0017,"dx":0.0017,"nx":28,"ny":28,"refTime":"2025-08-08T09:00:00:Z","depth":0,"parameterNumber":3,"parameterNumberName":"V-component_of_WINDS"},"data":[0,0,0,0,0,0,0,0,0,0,0,0,0,0,0,0,0,0,0,0,0,0,0,0,0,0,0,0,0,0,0,0,0,0,0,0,0,0,0,0,0,0,0,0,0,0,0,0,0,0,0,0,0,0,0,0,0,0,0.9436,0.9436,0,0.9441,0.9441,0.9441,0.9448,0.9448,0.9448,0.9449,0.9452,0.9452,0.9452,0,0,0,0,0,0,0,0,0,0,0,0,0,0.943,0.943,0.9436,0.9436,0.9436,0.9441,0.9441,0.9441,0.9448,0.9448,0.9449,0.9449,0.9452,0.9452,0.9452,0,0,0,0,0,0,0,0,0,0,0,0,0,0.9434,0.9431,0.9436,0.944,0.944,0.9441,0.9441,0.9441,0.9448,0.9448,0.9449,0.9449,0.9452,0.9452,0.9452,0.9448,0,0,0.9452,0.9452,0,0,0,0,0,0,0,0,0.9434,0.9434,0.9439,0.944,0.944,0.9444,0.944,0.9443,0.9448,0.9445,0.9449,0.9449,0.9449,0.9449,0.945,0.9448,0.9448,0.9452,0.9452,0.9452,0.9452,0,0,0,0,0,0,0,0.9433,0.9434,0.9438,0.9439,0.944,0.9441,0.9442,0.9441,0.9446,0.9445,0.9446,0.9447,0.9449,0.945,0.945,0.9448,0.9452,0.9452,0.9452,0.9452,0.9444,0.9444,0,0,0,0,0,0,0.9433,0.9434,0.9437,0.9438,0.9437,0.9441,0.9442,0.9443,0.9446,0.9447,0.9446,0.9447,0.945,0.945,0.945,0.9446,0.9452,0.9452,0.9452,0.9444,0.9444,0.9444,0,0,0,0,0,0,0.9433,0.9433,0.9437,0.9436,0.9436,0.9441,0.9442,0.9443,0.9443,0.9447,0.9448,0.9446,0.945,0.945,0.9449,0.9446,0.9452,0.9452,0.9445,0.9444,0.9444,0.9437,0,0,0,0,0,0,0.9432,0.9433,0.9432,0.9436,0.9437,0.9436,0.9442,0.9443,0.9443,0.9444,0.9447,0.9447,0.945,0.9449,0.9449,0.9446,0.9452,0.9445,0.9444,0.9444,0.9438,0.9437,0.9436,0,0,0,0,0,0.9432,0.9429,0.9431,0.9432,0.9435,0.9436,0.9436,0.944,0.9443,0.9442,0.9444,0.9447,0.9447,0.9449,0.9449,0.9446,0.9445,0.9444,0.9444,0.9438,0.9437,0.9436,0,0,0,0,0,0,0.9423,0.9429,0.9432,0.943,0.9433,0.9437,0.9435,0.9439,0.944,0.944,0.9445,0.9445,0.9443,0.9444,0.9447,0.9443,0.9446,0.9446,0.9442,0.9441,0.944,0.9439,0.9452,0,0,0,0,0,0.9421,0.9422,0.9427,0.9425,0.9426,0.943,0.9431,0.9434,0.9436,0.9437,0.9439,0.9441,0.9441,0.9441,0.9441,0.9438,0.9439,0.9436,0.9436,0.9435,0.9434,0.9433,0.9432,0.9443,0.9443,0.9443,0,0,0.9417,0.942,0.942,0.9423,0.9425,0.9425,0.9431,0.9431,0.9431,0.9437,0.9436,0.9437,0.9439,0.9437,0.9436,0.9438,0.9432,0.9434,0.9434,0.9434,0.9433,0.9432,0.9431,0.9442,0.9442,0.9442,0,0,0.9409,0.9411,0.941,0.9412,0.9416,0.9419,0.9419,0.9423,0.9425,0.9424,0.9428,0.9428,0.9429,0.943,0.9431,0.9425,0.9427,0.9425,0.942,0.9419,0.9418,0.9417,0.9415,0.9414,0.9424,0.9424,0.9424,0,0.9402,0.9403,0.9409,0.9409,0.941,0.9416,0.9415,0.9416,0.9419,0.942,0.9422,0.9424,0.9425,0.9424,0.9422,0.9423,0.9422,0.9424,0.9418,0.9417,0.9416,0.9414,0.9413,0.9424,0.9424,0.9424,0.9424,0,0.9395,0.9396,0.9394,0.9398,0.9399,0.9399,0.9404,0.9404,0.9408,0.9411,0.941,0.9412,0.9414,0.9414,0.9416,0.9413,0.9414,0.9417,0.9421,0.9415,0.9413,0.9412,0.9423,0.9423,0.9423,0.9423,0,0,0.9381,0.9389,0.9388,0.939,0.9395,0.9395,0.9395,0.9397,0.9397,0.94,0.9399,0.94,0.9403,0.9404,0.9407,0.9406,0.9401,0.9409,0.9409,0.9407,0.9397,0.9395,0.9394,0.9403,0.9403,0.9403,0.9397,0,0.9373,0.9373,0.9379,0.9377,0.9378,0.9385,0.9385,0.9387,0.939,0.9391,0.9394,0.9395,0.9399,0.9399,0.9399,0.9402,0.9399,0.9402,0.9403,0.9403,0.9402,0.9393,0.939,0.9384,0.9396,0.9396,0.9396,0,0.9364,0.9367,0.9366,0.9372,0.9372,0.9372,0.9375,0.9375,0.9379,0.9381,0.9383,0.9387,0.9387,0.9391,0.939,0.9393,0.9393,0.9395,0.9395,0.9394,0.9399,0.9392,0.9382,0.9381,0.9395,0.9395,0.9395,0,0.9354,0.9357,0.9357,0.9359,0.9365,0.9365,0.9368,0.9371,0.9373,0.9375,0.9376,0.9378,0.9379,0.938,0.9384,0.9387,0.9384,0.9388,0.9385,0.9385,0.9384,0.9384,0.9374,0.9385,0.9385,0.9385,0.9385,0,0.9344,0.9343,0.9352,0.9352,0.9352,0.9358,0.9357,0.936,0.9364,0.9364,0.937,0.937,0.9376,0.9377,0.938,0.938,0.938,0.9382,0.9382,0.9381,0.9381,0.9381,0.9381,0.9384,0.9384,0.9384,0.9385,0,0.9332,0.9338,0.9338,0.9345,0.9347,0.9346,0.9352,0.9352,0.9356,0.9356,0.9357,0.9363,0.9364,0.9369,0.9371,0.9373,0.9372,0.9373,0.9371,0.9371,0.9368,0.9368,0.9358,0.9356,0.9368,0.9368,0.9368,0,0.9325,0.9325,0.9332,0.9333,0.9336,0.9338,0.9339,0.9346,0.9347,0.9352,0.9351,0.9353,0.9355,0.9357,0.9361,0.9363,0.9365,0.9361,0.9365,0.9364,0.9365,0.9365,0.9365,0.936,0.936,0.936,0.936,0,0.9313,0.9317,0.9319,0.9323,0.9325,0.9328,0.9331,0.9332,0.9339,0.934,0.9342,0.9344,0.9347,0.9349,0.9352,0.9354,0.9358,0.9359,0.9358,0.9356,0.9355,0.9356,0.9368,0.9359,0.9359,0.9359,0.9359,0.9359,0.9303,0.9304,0.9309,0.9312,0.9315,0.9319,0.9319,0.9324,0.9326,0.9329,0.9333,0.9335,0.9339,0.9343,0.9345,0.9347,0.9349,0.9348,0.9348,0.9347,0.9346,0.9355,0.9347,0.9347,0.9347,0.9347,0.9347,0,0.9292,0.9296,0.9298,0.9303,0.9305,0.931,0.9314,0.9316,0.9317,0.9321,0.9324,0.9326,0.9328,0.9333,0.9336,0.9336,0.9338,0.9336,0.9336,0.9337,0.9344,0.9345,0.9335,0.9335,0.9335,0.9335,0.9335,0.9335,0.9286,0.9286,0.929,0.9293,0.9297,0.9299,0.9301,0.9305,0.9308,0.9311,0.9313,0.9317,0.9321,0.9324,0.9326,0.9328,0.9328,0.9326,0.9328,0.9335,0.9336,0.9337,0.9337,0.9326,0.9326,0.932,0.932,0.932]}]]